N6RSX Weather Reports


time (UTC)temp
F
wind
direction
speed
knots
gust
knots
rain 1hr
in
rain 24hr
in
rain mn
in
humidity
%
barometer
mb
20260503220350 66 252 3.5 8.7 0.00 0.00 0.00 59 1013.6
20260503215850 66 211 4.3 10.4 0.00 0.00 0.00 61 1013.7
20260503215350 66 209 4.3 10.4 0.00 0.00 0.00 59 1013.8
20260503214849 66 213 3.5 7.8 0.00 0.00 0.00 61 1013.7
20260503214347 66 335 3.5 8.7 0.00 0.00 0.00 62 1013.7
20260503213346 66 158 3.5 7.0 0.00 0.00 0.00 63 1013.7
20260503212844 66 211 2.6 7.0 0.00 0.00 0.00 63 1013.8
20260503212343 66 196 3.5 8.7 0.00 0.00 0.00 64 1013.7
20260503211843 66 136 4.3 8.7 0.00 0.00 0.00 64 1013.9
20260503211342 66 212 4.3 7.8 0.00 0.00 0.00 65 1013.9
20260503210843 66 209 3.5 7.8 0.00 0.00 0.00 65 1013.8
20260503205844 66 185 3.5 10.4 0.00 0.00 0.00 65 1013.9
20260503205343 66 178 4.3 7.8 0.00 0.00 0.00 65 1013.8
20260503204336 66 181 3.5 8.7 0.00 0.00 0.00 66 1013.9
20260503203829 66 142 3.5 9.6 0.00 0.00 0.00 67 1013.9
20260503203325 66 175 4.3 9.6 0.00 0.00 0.00 65 1013.9
20260503202819 66 187 3.5 9.6 0.00 0.00 0.00 66 1013.9
20260503202312 66 223 2.6 7.0 0.00 0.00 0.00 65 1014.0
20260503201806 66 185 3.5 8.7 0.00 0.00 0.00 66 1013.9
20260503201301 66 207 3.5 10.4 0.00 0.00 0.00 66 1013.9
20260503200755 66 208 3.5 10.4 0.00 0.00 0.00 67 1013.9
20260503200248 66 135 2.6 7.8 0.00 0.00 0.00 67 1014.1
20260503195743 65 182 3.5 7.8 0.00 0.00 0.00 68 1014.0
20260503195236 65 139 2.6 7.8 0.00 0.00 0.00 68 1014.0
20260503194730 65 148 1.7 7.0 0.00 0.00 0.00 69 1014.2
20260503194223 65 232 2.6 7.0 0.00 0.00 0.00 68 1014.2
20260503192705 64 163 1.7 6.1 0.00 0.00 0.00 70 1014.5
20260503192200 63 200 2.6 9.6 0.00 0.00 0.00 70 1014.6
20260503191655 63 201 3.5 9.6 0.00 0.00 0.00 70 1014.8
20260503191147 63 191 2.6 7.8 0.00 0.00 0.00 73 1014.6
20260503190643 63 196 2.6 7.8 0.00 0.00 0.00 72 1014.8
20260503190136 63 228 2.6 6.1 0.00 0.00 0.00 72 1014.8
20260503185631 62 229 2.6 5.2 0.00 0.00 0.00 73 1015.0
20260503185125 62 209 1.7 5.2 0.00 0.00 0.00 73 1015.0
20260503184618 62 207 0.9 5.2 0.00 0.00 0.00 74 1015.0
20260503184112 62 194 0.9 4.3 0.00 0.00 0.00 74 1015.1
20260503183607 62 235 2.6 4.3 0.00 0.00 0.00 74 1015.2
20260503183100 62 182 1.7 5.2 0.00 0.00 0.00 74 1015.2
20260503182553 62 175 1.7 5.2 0.00 0.00 0.00 74 1015.2
20260503182048 62 177 1.7 5.2 0.00 0.00 0.00 74 1015.1
20260503181035 62 174 1.7 6.1 0.00 0.00 0.00 74 1015.2
20260503180530 61 207 0.0 2.6 0.00 0.00 0.00 75 1015.2
20260503180024 61 269 1.7 4.3 0.00 0.00 0.00 76 1015.2
20260503175518 61 238 2.6 7.0 0.00 0.00 0.00 76 1015.1
20260503175013 61 209 2.6 7.0 0.00 0.00 0.00 76 1015.1
20260503174506 61 195 2.6 4.3 0.00 0.00 0.00 77 1015.1
20260503174000 61 200 0.9 4.3 0.00 0.00 0.00 77 1015.1
20260503173455 60 204 0.9 4.3 0.00 0.00 0.00 79 1015.0
20260503172947 60 229 2.6 5.2 0.00 0.00 0.00 80 1014.9
20260503171936 61 217 2.6 5.2 0.00 0.00 0.00 80 1014.8
20260503171430 61 215 2.6 5.2 0.00 0.00 0.00 80 1014.8
20260503170418 61 216 1.7 6.1 0.00 0.00 0.00 80 1014.6
20260503150734 58 53 0.0 1.7 0.00 0.00 0.00 92 1014.0
20260503150233 58 355 0.9 1.7 0.00 0.00 0.00 92 1014.0
20260503131223 57 161 0.0 1.7 0.00 0.00 0.00 93 1013.3
20260503130724 57 161 0.0 1.7 0.00 0.00 0.00 93 1013.1
20260503130223 57 161 0.0 1.7 0.00 0.00 0.00 93 1013.2
20260503110659 57 207 2.6 6.1 0.00 0.00 0.00 92 1012.9
20260503110158 57 192 2.6 6.1 0.00 0.00 0.00 92 1012.9
20260503100134 58 178 0.0 0.0 0.00 0.00 0.00 90 1013.1
20260503081430 59 146 2.6 6.1 0.00 0.00 0.00 86 1013.6
20260503080922 59 163 3.5 6.1 0.00 0.00 0.00 87 1013.6
20260503080417 59 168 2.6 6.1 0.00 0.00 0.00 87 1013.6
20260503072835 59 173 2.6 5.2 0.00 0.00 0.00 86 1013.5
20260503072329 59 150 2.6 6.1 0.00 0.00 0.00 86 1013.4
20260503071823 60 148 1.7 6.1 0.00 0.00 0.00 86 1013.3
20260503071318 60 160 1.7 5.2 0.00 0.00 0.00 86 1013.1
20260503070810 60 153 0.9 3.5 0.00 0.00 0.00 86 1013.0
20260503070306 60 149 0.9 4.3 0.00 0.00 0.00 86 1013.1
20260503060153 60 200 0.0 1.7 0.00 0.00 0.00 84 1013.0
20260503054636 60 186 0.9 2.6 0.00 0.00 0.00 83 1012.9
20260503054128 60 197 0.9 2.6 0.00 0.00 0.00 83 1013.1
20260503053623 60 200 0.0 2.6 0.00 0.00 0.00 83 1013.2
20260503053117 60 209 0.0 0.0 0.00 0.00 0.00 82 1013.2
20260503052611 61 161 0.0 2.6 0.00 0.00 0.00 82 1013.2
20260503052104 61 218 0.9 3.5 0.00 0.00 0.00 82 1013.2
20260503051601 61 159 1.7 4.3 0.00 0.00 0.00 82 1013.3
20260503051052 61 176 1.7 4.3 0.00 0.00 0.00 81 1013.3
20260503050040 61 157 0.9 3.5 0.00 0.00 0.00 80 1013.1
20260503045029 61 155 1.7 5.2 0.00 0.00 0.00 80 1013.0
20260503044523 61 155 2.6 6.1 0.00 0.00 0.00 80 1013.0
20260503044017 61 174 1.7 5.2 0.00 0.00 0.00 80 1012.9
20260503043512 62 155 1.7 5.2 0.00 0.00 0.00 80 1013.0
20260503042459 62 152 2.6 6.1 0.00 0.00 0.00 79 1012.8
20260503041953 62 185 3.5 6.1 0.00 0.00 0.00 78 1012.8
20260503041448 62 162 3.5 7.0 0.00 0.00 0.00 78 1012.7
20260503040943 62 211 4.3 7.8 0.00 0.00 0.00 77 1012.6
20260503040439 62 160 4.3 8.7 0.00 0.00 0.00 77 1012.7
20260503035939 62 164 4.3 8.7 0.00 0.00 0.00 77 1012.6
20260503034940 62 145 3.5 7.8 0.00 0.00 0.00 77 1012.3
20260503034439 63 170 3.5 7.8 0.00 0.00 0.00 76 1012.3
20260503033940 63 170 3.5 7.8 0.00 0.00 0.00 76 1012.3
20260503033439 63 168 3.5 7.0 0.00 0.00 0.00 76 1012.1
20260503032939 63 165 3.5 7.8 0.00 0.00 0.00 75 1011.9
20260503032440 64 138 3.5 7.8 0.00 0.00 0.00 75 1011.9
20260503031939 64 163 3.5 7.8 0.00 0.00 0.00 74 1011.9
20260503031439 64 184 3.5 7.8 0.00 0.00 0.00 74 1011.8
20260503030939 65 167 3.5 7.8 0.00 0.00 0.00 73 1011.8
20260503030439 65 165 2.6 7.0 0.00 0.00 0.00 73 1011.5
20260503024937 65 180 4.3 7.8 0.00 0.00 0.00 72 1011.4
20260503024438 65 211 4.3 7.8 0.00 0.00 0.00 72 1011.2
20260503023435 66 198 3.5 7.0 0.00 0.00 0.00 71 1011.1
20260503022934 66 197 3.5 7.0 0.00 0.00 0.00 71 1011.0
20260503022435 67 207 3.5 6.1 0.00 0.00 0.00 70 1010.9
20260503021936 67 216 3.5 6.1 0.00 0.00 0.00 70 1011.0
20260503021435 67 207 3.5 7.0 0.00 0.00 0.00 70 1010.8
20260503020935 67 197 3.5 7.0 0.00 0.00 0.00 69 1010.8
20260503020434 68 229 4.3 9.6 0.00 0.00 0.00 68 1010.7
20260503015935 68 215 4.3 9.6 0.00 0.00 0.00 68 1010.7
20260503015435 69 197 3.5 7.8 0.00 0.00 0.00 67 1010.7
20260503014935 69 163 4.3 7.8 0.00 0.00 0.00 67 1010.8
20260503014435 69 188 4.3 7.8 0.00 0.00 0.00 67 1010.7
20260503013935 69 193 4.3 9.6 0.00 0.00 0.00 66 1010.7
20260503011433 71 159 3.5 8.7 0.00 0.00 0.00 64 1010.6
20260503010933 71 211 3.5 8.7 0.00 0.00 0.00 65 1010.7
20260503010433 71 217 4.3 8.7 0.00 0.00 0.00 64 1010.6
20260503005932 71 149 4.3 7.8 0.00 0.00 0.00 64 1010.6
20260503005433 71 203 3.5 8.7 0.00 0.00 0.00 64 1010.6
20260503004432 72 148 3.5 7.0 0.00 0.00 0.00 63 1010.6
20260503003432 72 178 3.5 8.7 0.00 0.00 0.00 63 1010.7
20260503002933 73 202 3.5 7.8 0.00 0.00 0.00 63 1010.8
20260503002433 73 221 3.5 7.8 0.00 0.00 0.00 63 1010.8
20260503001933 73 215 3.5 8.7 0.00 0.00 0.00 63 1010.7
20260503001433 72 232 3.5 8.7 0.00 0.00 0.00 63 1010.7
20260503000933 72 170 4.3 8.7 0.00 0.00 0.00 64 1010.7
20260503000433 72 186 4.3 8.7 0.00 0.00 0.00 63 1010.8
20260502235931 73 213 3.5 7.8 0.00 0.00 0.00 63 1010.8
20260502235431 73 221 3.5 8.7 0.00 0.00 0.00 63 1010.7
20260502234931 73 182 4.3 9.6 0.00 0.00 0.00 64 1010.6
20260502234429 73 146 4.3 9.6 0.00 0.00 0.00 64 1010.7
20260502233429 72 229 5.2 9.6 0.00 0.00 0.00 65 1010.7
20260502232927 73 171 5.2 9.6 0.00 0.00 0.00 64 1010.8
20260502231926 72 178 4.3 9.6 0.00 0.00 0.00 64 1010.9
20260502230928 73 146 3.5 8.7 0.00 0.00 0.00 65 1010.8
20260502230426 73 194 3.5 8.7 0.00 0.00 0.00 64 1010.9
20260502225919 73 192 4.3 8.7 0.00 0.00 0.00 65 1011.0
20260502225415 73 190 5.2 9.6 0.00 0.00 0.00 65 1011.0
20260502224914 72 171 6.1 9.6 0.00 0.00 0.00 65 1011.1
20260502224415 72 198 6.1 10.4 0.00 0.00 0.00 65 1011.5
20260502223915 72 196 6.1 10.4 0.00 0.00 0.00 65 1011.5
20260502223415 72 161 6.1 10.4 0.00 0.00 0.00 65 1011.6
20260502222914 72 199 5.2 9.6 0.00 0.00 0.00 65 1011.7
20260502222415 73 196 5.2 11.3 0.00 0.00 0.00 65 1011.8
20260502221914 73 221 6.1 11.3 0.00 0.00 0.00 65 1012.0
20260502221414 73 211 6.1 10.4 0.00 0.00 0.00 64 1011.9
20260502220914 73 187 5.2 10.4 0.00 0.00 0.00 63 1012.0